Time,TemperatureF,DewpointF,PressureIn,WindDirection,WindDirectionDegrees,WindSpeedMPH,WindSpeedGustMPH,Humidity,HourlyPrecipIn,Conditions,Clouds,dailyrainin,SoftwareType,DateUTC
2013-05-25 00:01:00,40.2,37.2,30.40,WNW,297,1.0,5.0,89,0.00,,---,0.00,VWS V14.01,2013-05-25 04:01:00,
2013-05-25 00:16:00,40.0,37.3,30.40,WNW,297,2.0,4.0,90,0.00,,---,0.00,VWS V14.01,2013-05-25 04:16:00,
2013-05-25 00:31:00,39.7,37.3,30.39,WNW,297,0.0,3.0,91,0.00,,---,0.00,VWS V14.01,2013-05-25 04:31:00,
2013-05-25 00:46:00,39.4,37.0,30.39,WNW,297,0.0,2.0,91,0.00,,---,0.00,VWS V14.01,2013-05-25 04:46:00,
2013-05-25 01:01:00,39.0,36.6,30.39,WNW,297,0.0,1.0,91,0.00,,---,0.00,VWS V14.01,2013-05-25 05:01:00,
2013-05-25 01:16:00,38.8,36.7,30.39,WNW,297,0.0,0.0,92,0.00,,---,0.00,VWS V14.01,2013-05-25 05:16:00,
2013-05-25 01:31:00,38.5,36.4,30.40,WNW,297,0.0,1.0,92,0.00,,---,0.00,VWS V14.01,2013-05-25 05:31:00,
2013-05-25 01:46:00,38.2,36.4,30.39,WNW,297,0.0,2.0,93,0.00,,---,0.00,VWS V14.01,2013-05-25 05:46:00,
2013-05-25 02:01:00,38.2,36.4,30.39,WNW,297,0.0,0.0,93,0.00,,---,0.00,VWS V14.01,2013-05-25 06:01:00,
2013-05-25 02:16:00,38.1,36.3,30.38,WNW,297,0.0,0.0,93,0.00,,---,0.00,VWS V14.01,2013-05-25 06:16:00,
2013-05-25 02:31:00,37.8,36.0,30.38,WNW,297,0.0,0.0,93,0.00,,---,0.00,VWS V14.01,2013-05-25 06:31:00,
2013-05-25 02:46:00,37.6,35.8,30.38,WNW,297,0.0,0.0,93,0.00,,---,0.00,VWS V14.01,2013-05-25 06:46:00,
2013-05-25 03:01:00,37.6,36.0,30.37,WNW,297,0.0,0.0,94,0.00,,---,0.00,VWS V14.01,2013-05-25 07:01:00,
2013-05-25 03:16:00,37.2,35.6,30.37,WNW,297,0.0,0.0,94,0.00,,---,0.00,VWS V14.01,2013-05-25 07:16:00,
2013-05-25 03:31:00,37.3,35.7,30.36,WNW,297,0.0,1.0,94,0.00,,---,0.00,VWS V14.01,2013-05-25 07:31:00,
2013-05-25 03:46:00,37.9,36.3,30.36,WNW,297,0.0,0.0,94,0.00,,---,0.00,VWS V14.01,2013-05-25 07:46:00,
2013-05-25 04:01:00,38.1,36.5,30.35,WNW,297,0.0,0.0,94,0.00,,---,0.00,VWS V14.01,2013-05-25 08:01:00,
2013-05-25 04:16:00,38.1,36.5,30.34,WNW,297,1.0,3.0,94,0.00,,---,0.00,VWS V14.01,2013-05-25 08:16:00,
2013-05-25 04:31:00,38.3,36.7,30.34,WNW,297,0.0,3.0,94,0.00,,---,0.00,VWS V14.01,2013-05-25 08:31:00,
2013-05-25 04:46:00,38.6,37.0,30.34,WNW,297,0.0,2.0,94,0.00,,---,0.00,VWS V14.01,2013-05-25 08:46:00,
2013-05-25 05:01:00,38.8,37.2,30.34,WNW,297,0.0,3.0,94,0.00,,---,0.00,VWS V14.01,2013-05-25 09:01:00,
2013-05-25 05:16:00,38.9,37.3,30.35,WNW,297,0.0,3.0,94,0.00,,---,0.00,VWS V14.01,2013-05-25 09:16:00,
2013-05-25 05:31:00,38.7,37.1,30.36,WNW,297,0.0,1.0,94,0.00,,---,0.00,VWS V14.01,2013-05-25 09:31:00,
2013-05-25 05:46:00,38.9,37.3,30.36,WNW,297,1.0,4.0,94,0.00,,---,0.00,VWS V14.01,2013-05-25 09:46:00,
2013-05-25 06:01:00,39.0,37.4,30.37,WNW,297,0.0,2.0,94,0.00,,---,0.00,VWS V14.01,2013-05-25 10:01:00,
2013-05-25 06:16:00,38.9,37.3,30.37,WNW,297,0.0,1.0,94,0.00,,---,0.00,VWS V14.01,2013-05-25 10:16:00,
2013-05-25 06:31:00,38.9,37.3,30.38,WNW,297,0.0,2.0,94,0.00,,---,0.00,VWS V14.01,2013-05-25 10:31:00,
2013-05-25 06:46:00,39.1,37.5,30.39,WNW,297,1.0,2.0,94,0.00,,---,0.00,VWS V14.01,2013-05-25 10:46:00,
2013-05-25 07:01:00,39.4,37.8,30.40,WNW,297,0.0,3.0,94,0.00,,---,0.00,VWS V14.01,2013-05-25 11:01:00,
2013-05-25 07:16:00,40.0,38.7,30.39,WNW,297,0.0,0.0,95,0.00,,---,0.00,VWS V14.01,2013-05-25 11:16:00,
2013-05-25 07:31:00,41.0,39.7,30.40,WNW,297,0.0,0.0,95,0.00,,---,0.00,VWS V14.01,2013-05-25 11:31:00,
2013-05-25 07:46:00,42.1,40.5,30.40,WNW,297,0.0,2.0,94,0.00,,---,0.00,VWS V14.01,2013-05-25 11:46:00,
2013-05-25 08:01:00,42.5,40.3,30.41,WNW,297,1.0,4.0,92,0.00,,---,0.00,VWS V14.01,2013-05-25 12:01:00,
2013-05-25 08:16:00,42.8,40.6,30.42,WNW,296,3.0,6.0,92,0.00,,---,0.00,VWS V14.01,2013-05-25 12:16:00,
2013-05-25 08:31:00,43.1,40.9,30.41,WNW,296,2.0,6.0,92,0.00,,---,0.00,VWS V14.01,2013-05-25 12:31:00,
2013-05-25 08:46:00,43.8,41.3,30.41,WNW,296,3.0,3.0,91,0.00,,---,0.00,VWS V14.01,2013-05-25 12:46:00,
2013-05-25 09:01:00,45.4,42.6,30.41,WNW,296,0.0,3.0,90,0.00,,---,0.00,VWS V14.01,2013-05-25 13:01:00,
2013-05-25 09:16:00,48.4,42.8,30.42,WNW,296,0.0,1.0,81,0.00,,---,0.00,VWS V14.01,2013-05-25 13:16:00,
2013-05-25 09:31:00,49.6,42.7,30.42,WNW,296,1.0,4.0,77,0.00,,---,0.00,VWS V14.01,2013-05-25 13:31:00,
2013-05-25 09:46:00,49.9,43.7,30.42,WNW,296,3.0,5.0,79,0.00,,---,0.00,VWS V14.01,2013-05-25 13:46:00,
2013-05-25 10:01:00,49.9,44.0,30.42,NW,310,3.0,5.0,80,0.00,,---,0.00,VWS V14.01,2013-05-25 14:01:00,
2013-05-25 10:16:00,50.7,44.4,30.43,NW,310,1.0,4.0,79,0.00,,---,0.00,VWS V14.01,2013-05-25 14:16:00,
2013-05-25 10:31:00,51.7,45.1,30.42,NW,310,2.0,3.0,78,0.00,,---,0.00,VWS V14.01,2013-05-25 14:31:00,
2013-05-25 10:46:00,53.1,45.4,30.41,SE,138,0.0,4.0,75,0.00,,---,0.00,VWS V14.01,2013-05-25 14:46:00,
2013-05-25 11:01:00,53.9,45.1,30.41,WSW,238,1.0,6.0,72,0.00,,---,0.00,VWS V14.01,2013-05-25 15:01:00,
2013-05-25 11:16:00,55.6,46.0,30.41,WSW,242,0.0,4.0,70,0.00,,---,0.00,VWS V14.01,2013-05-25 15:16:00,
2013-05-25 11:31:00,56.5,45.7,30.41,SW,214,0.0,5.0,67,0.00,,---,0.00,VWS V14.01,2013-05-25 15:31:00,
2013-05-25 11:46:00,57.6,45.5,30.40,NNE,31,3.0,5.0,64,0.00,,---,0.00,VWS V14.01,2013-05-25 15:46:00,
2013-05-25 12:01:00,58.9,45.9,30.40,NE,40,2.0,6.0,62,0.00,,---,0.00,VWS V14.01,2013-05-25 16:01:00,
2013-05-25 12:16:00,59.7,46.2,30.40,West,275,1.0,5.0,61,0.00,,---,0.00,VWS V14.01,2013-05-25 16:16:00,
2013-05-25 12:31:00,59.3,45.9,30.39,NNE,31,1.0,7.0,61,0.00,,---,0.00,VWS V14.01,2013-05-25 16:31:00,
2013-05-25 12:46:00,59.5,45.2,30.40,NE,55,3.0,6.0,59,0.00,,---,0.00,VWS V14.01,2013-05-25 16:46:00,
2013-05-25 13:01:00,59.3,44.5,30.40,NE,45,0.0,6.0,58,0.00,,---,0.00,VWS V14.01,2013-05-25 17:01:00,
2013-05-25 13:16:00,59.5,44.3,30.40,East,84,2.0,5.0,57,0.00,,---,0.00,VWS V14.01,2013-05-25 17:16:00,
2013-05-25 13:31:00,59.6,43.4,30.40,WNW,290,2.0,5.0,55,0.00,,---,0.00,VWS V14.01,2013-05-25 17:31:00,
2013-05-25 13:46:00,59.6,43.4,30.39,WNW,296,1.0,4.0,55,0.00,,---,0.00,VWS V14.01,2013-05-25 17:46:00,
2013-05-25 14:01:00,59.6,44.4,30.38,WNW,286,0.0,7.0,57,0.00,,---,0.00,VWS V14.01,2013-05-25 18:01:00,
2013-05-25 14:16:00,59.4,42.8,30.38,WNW,302,1.0,6.0,54,0.00,,---,0.00,VWS V14.01,2013-05-25 18:16:00,
2013-05-25 14:31:00,59.6,43.9,30.37,WNW,299,2.0,6.0,56,0.00,,---,0.00,VWS V14.01,2013-05-25 18:31:00,
2013-05-25 14:46:00,60.4,44.7,30.36,NW,309,4.0,6.0,56,0.00,,---,0.00,VWS V14.01,2013-05-25 18:46:00,
2013-05-25 15:01:00,60.6,42.4,30.35,WNW,289,5.0,5.0,51,0.00,,---,0.00,VWS V14.01,2013-05-25 19:01:00,
2013-05-25 15:16:00,60.5,42.8,30.35,WNW,286,1.0,5.0,52,0.00,,---,0.00,VWS V14.01,2013-05-25 19:16:00,
2013-05-25 15:31:00,61.3,42.5,30.34,WNW,286,0.0,3.0,50,0.00,,---,0.00,VWS V14.01,2013-05-25 19:31:00,
2013-05-25 15:46:00,61.8,41.4,30.34,ESE,121,2.0,5.0,47,0.00,,---,0.00,VWS V14.01,2013-05-25 19:46:00,
2013-05-25 16:01:00,60.0,48.6,30.34,West,269,6.0,10.0,66,0.00,,---,0.00,VWS V14.01,2013-05-25 20:01:00,
2013-05-25 16:16:00,60.1,48.3,30.33,West,268,6.0,10.0,65,0.00,,---,0.00,VWS V14.01,2013-05-25 20:16:00,
2013-05-25 16:31:00,60.9,48.7,30.33,WNW,288,1.0,7.0,64,0.00,,---,0.00,VWS V14.01,2013-05-25 20:31:00,
2013-05-25 16:46:00,61.2,48.5,30.32,NW,324,3.0,8.0,63,0.00,,---,0.00,VWS V14.01,2013-05-25 20:46:00,
2013-05-25 17:01:00,62.1,47.2,30.31,WNW,287,4.0,7.0,58,0.00,,---,0.00,VWS V14.01,2013-05-25 21:01:00,
2013-05-25 17:16:00,62.2,46.8,30.31,NW,307,4.0,6.0,57,0.00,,---,0.00,VWS V14.01,2013-05-25 21:16:00,
2013-05-25 17:31:00,61.8,46.9,30.30,West,267,3.0,8.0,58,0.00,,---,0.00,VWS V14.01,2013-05-25 21:31:00,
2013-05-25 17:46:00,61.4,47.4,30.30,West,281,2.0,8.0,60,0.00,,---,0.00,VWS V14.01,2013-05-25 21:46:00,
2013-05-25 18:01:00,60.8,46.8,30.30,WNW,301,4.0,9.0,60,0.00,,---,0.00,VWS V14.01,2013-05-25 22:01:00,
2013-05-25 18:16:00,60.5,47.9,30.30,West,273,7.0,9.0,63,0.00,,---,0.00,VWS V14.01,2013-05-25 22:16:00,
2013-05-25 18:31:00,60.5,47.4,30.30,NW,304,4.0,8.0,62,0.00,,---,0.00,VWS V14.01,2013-05-25 22:31:00,
2013-05-25 18:46:00,60.2,48.4,30.30,WNW,287,2.0,7.0,65,0.00,,---,0.00,VWS V14.01,2013-05-25 22:46:00,
2013-05-25 19:01:00,59.3,46.7,30.30,WNW,287,3.0,9.0,63,0.00,,---,0.00,VWS V14.01,2013-05-25 23:01:00,
2013-05-25 19:16:00,58.9,44.6,30.31,WNW,303,2.0,10.0,59,0.00,,---,0.00,VWS V14.01,2013-05-25 23:16:00,
2013-05-25 19:31:00,59.0,42.9,30.31,NW,320,4.0,6.0,55,0.00,,---,0.00,VWS V14.01,2013-05-25 23:31:00,
2013-05-25 19:46:00,57.2,43.9,30.31,North,350,2.0,7.0,61,0.00,,---,0.00,VWS V14.01,2013-05-25 23:46:00,
2013-05-25 20:01:00,56.4,44.8,30.31,NW,306,1.0,4.0,65,0.00,,---,0.00,VWS V14.01,2013-05-26 00:01:00,
2013-05-25 20:16:00,56.1,45.3,30.30,NW,307,2.0,5.0,67,0.00,,---,0.00,VWS V14.01,2013-05-26 00:16:00,
2013-05-25 20:31:00,55.4,45.4,30.30,NW,307,1.0,4.0,69,0.00,,---,0.00,VWS V14.01,2013-05-26 00:31:00,
2013-05-25 20:46:00,54.7,45.5,30.30,NW,307,0.0,3.0,71,0.00,,---,0.00,VWS V14.01,2013-05-26 00:46:00,
2013-05-25 21:01:00,54.1,45.3,30.30,NW,306,3.0,5.0,72,0.00,,---,0.00,VWS V14.01,2013-05-26 01:01:00,
2013-05-25 21:16:00,53.6,44.8,30.30,NW,306,1.0,4.0,72,0.00,,---,0.00,VWS V14.01,2013-05-26 01:16:00,
2013-05-25 21:31:00,53.3,44.5,30.30,NW,306,0.0,3.0,72,0.00,,---,0.00,VWS V14.01,2013-05-26 01:31:00,
2013-05-25 21:46:00,53.1,42.5,30.30,NW,306,1.0,2.0,67,0.00,,---,0.00,VWS V14.01,2013-05-26 01:46:00,
2013-05-25 22:01:00,52.8,41.8,30.31,NW,304,0.0,6.0,66,0.00,,---,0.00,VWS V14.01,2013-05-26 02:01:00,
2013-05-25 22:16:00,52.5,42.3,30.32,NW,304,0.0,4.0,68,0.00,,---,0.00,VWS V14.01,2013-05-26 02:16:00,
2013-05-25 22:31:00,52.1,41.9,30.31,NW,304,0.0,2.0,68,0.00,,---,0.00,VWS V14.01,2013-05-26 02:31:00,
2013-05-25 22:46:00,51.6,42.2,30.31,NW,304,0.0,3.0,70,0.00,,---,0.00,VWS V14.01,2013-05-26 02:46:00,
2013-05-25 23:01:00,50.8,41.8,30.31,NW,304,0.0,3.0,71,0.00,,---,0.00,VWS V14.01,2013-05-26 03:01:00,
2013-05-25 23:16:00,49.9,40.9,30.32,NW,304,0.0,1.0,71,0.00,,---,0.00,VWS V14.01,2013-05-26 03:16:00,
2013-05-25 23:31:00,49.1,40.5,30.32,NW,304,0.0,1.0,72,0.00,,---,0.00,VWS V14.01,2013-05-26 03:31:00,
2013-05-25 23:46:00,48.0,40.1,30.32,NW,304,0.0,0.0,74,0.00,,---,0.00,VWS V14.01,2013-05-26 03:46:00,